Regional Weather Roundup
Issued by NWS

Home | Current Version | Previous Version | Text Only | Print | Product List | Glossary On
Versions: 1 2 3 4 5 6 7 8 9 10 11 12 13 14 15 16 17 18 19 20 21 22 23 24 25 26 27 28 29 30 31 32 33 34 35 36 37 38 39 40 41 42 43 44 45 46 47 48 49 50
000
ASUS43 KLOT 211010
RWRIL

ILLINOIS REGIONAL WEATHER ROUNDUP
NATIONAL WEATHER SERVICE CHICAGO/ROMEOVILLE IL
500 AM CDT MON APR 21 2014

NOTE: "FAIR" INDICATES FEW OR NO CLOUDS BELOW 12,000 FEET WITH NO
SIGNIFICANT WEATHER AND/OR OBSTRUCTIONS TO VISIBILITY.

* THESE STATIONS ARE NOT UNDER NWS QUALITY CONTROL. THEY ALSO MAY NOT
  REPORT WEATHER SUCH AS PRECIPITATION OR FOG.

ILZ001-002-007-009-015-016-024-211100-
NORTHWEST ILLINOIS

CITY           SKY/WX    TMP DP  RH WIND       PRES   REMARKS
MOLINE         MOCLDY    58  44  60 E3        29.94F
STERLING*      PTCLDY    52  45  76 CALM      29.95F
SAVANNA*       MOCLDY    57  46  66 CALM      29.94F
$$

ILZ003-004-008-010-011-017-018-211100-
NORTH CENTRAL ILLINOIS

CITY           SKY/WX    TMP DP  RH WIND       PRES   REMARKS
ROCKFORD       CLOUDY    59  44  57 S6        29.97F
FREEPORT*      MOCLDY    59  47  63 S8        29.97F
ROCHELLE*      MOCLDY    54  42  64 CALM      29.98S
DE KALB*       MOCLDY    50  43  74 S7        29.98F
PERU*          MOCLDY    58  44  59 CALM      29.98S
$$

ILZ005-006-012>014-019>023-211100-
NORTHEAST ILLINOIS

CITY           SKY/WX    TMP DP  RH WIND       PRES   REMARKS
CHICAGO-OHARE  CLOUDY    61  40  45 SW7       29.97F
CHICAGO-MIDWAY MOCLDY    61  43  51 SW6       29.98F
AURORA         MOCLDY    55  43  63 CALM      29.98F
LANSING*       MOCLDY    53  41  64 SW3       30.00S
JOLIET*        MOCLDY    55  43  63 SE3       29.99F
WAUKEGAN       CLOUDY    57  46  66 SW7       29.96F
DUPAGE AIRPORT CLOUDY    55  44  66 S5        29.97F
KANKAKEE*      MOCLDY    50  44  78 E3        30.01F
WHEELING       CLOUDY    61  44  53 CALM      29.98F
MORRIS*        PTCLDY    56  39  53 SE3       29.98S
ROMEOVILLE*    MOCLDY    53  42  66 S9        29.99F
NORTHERLY ISL    N/A     63  41  44 SW3         N/A
$$

LMZ740>746-211100-
SOUTHERN LAKE MICHIGAN

STATION/POSITION SKY/WX   TEMP    WIND        PRES    VSBY  WAVE
                          AIR SEA DIR/SP/G                  HT/PER
                          (F)     (DEG/KT/KT) (MB)    (MI)  (FT/S)
WAUKEGAN HARBOR            63     240/  4/  5 1016.3F
HARRISON CRIB              63     200/ 20/ 23   N/A
BURNHAM HARBOR             63     200/  4/  8   N/A
CALUMET HARBOR             61     190/  7/  9 1016.3S
MICHIGAN CITY              62     160/ 10/ 14   N/A
$$

ILZ025>027-034>036-040-047-049-050-058-095>099-211100-
WEST-CENTRAL ILLINOIS

CITY           SKY/WX    TMP DP  RH WIND       PRES   REMARKS
QUINCY         CLOUDY    62  46  55 S6        29.98F
GALESBURG*     CLOUDY    57  47  70 S3        29.97S
MACOMB*        CLOUDY    59  46  62 S5        29.99F
JACKSONVILLE*  CLOUDY    62  45  55 S5        29.99F
PITTSFIELD*    CLOUDY    64  46  52 SW3       30.00F
$$

ILZ028>032-037-038-041>044-048-051>054-059>061-211100-
CENTRAL ILLINOIS

CITY           SKY/WX    TMP DP  RH WIND       PRES   REMARKS
PONTIAC        MOCLDY    55  45  67 CALM      29.99F
BLOOMINGTON    CLOUDY    55  42  61 MISG      30.00F
DECATUR        CLOUDY    59  45  59 S8        30.00F
PEORIA         CLOUDY    60  44  55 S3        29.98F
LACON*         CLOUDY    60  44  55 S5        29.97F
LINCOLN*       CLOUDY    61  46  58 CALM      29.98F
SPRINGFIELD    CLOUDY    64  45  49 SW7       30.00S
TAYLORVILLE    CLOUDY    59  46  63 S8        30.00F
$$

ILZ033-039-045-046-055>057-062-063-211100-
EAST-CENTRAL ILLINOIS

CITY           SKY/WX    TMP DP  RH WIND       PRES   REMARKS
CHAMPAIGN      CLOUDY    58  43  57 S8        30.01F
RANTOUL*       MOCLDY    56  43  61 CALM      30.02F
MATTOON        CLOUDY    61  43  51 S7        30.02S
PARIS*         CLOUDY    56  45  64 SE5       30.04S
$$

ILZ079-100>102-211100-
SOUTHWEST ILLINOIS

CITY           SKY/WX    TMP DP  RH WIND       PRES   REMARKS
ALTON          CLOUDY    58  47  68 CALM      30.02F
BELLEVILLE     CLOUDY    58  49  71 S5        30.01F
CAHOKIA*       CLOUDY    60  47  61 S5        30.01F
SPARTA*        CLOUDY    59  45  58 S5        30.04S
$$

ILZ064>066-069>071-074>076-080>082-084>086-088>090-092>094-211100-
SOUTH-CENTRAL ILLINOIS

CITY           SKY/WX    TMP DP  RH WIND       PRES   REMARKS
CARBONDALE     MOCLDY    54  49  83 CALM      30.05R
CAIRO*         CLOUDY    58  53  82 CALM      30.06S
MARION         MOCLDY    59  48  67 CALM      30.05S
MT. VERNON     MOCLDY    48  39  71 CALM      30.05S
CENTRALIA*       N/A     59  46  60 CALM      30.03S
SALEM*         MOCLDY    60  48  64 S5        30.04F
METROPOLIS*    CLOUDY    55  49  82 CALM      30.05F
$$

ILZ067-068-072-073-078-083-087-091-211100-
SOUTHEAST ILLINOIS

CITY           SKY/WX    TMP DP  RH WIND       PRES   REMARKS
FAIRFIELD*     PTCLDY    57  46  67 CALM      30.05S
HARRISBURG*    MOCLDY    53  48  82 CALM      30.07R
ROBINSON*      MOCLDY    53  50  89 CALM      30.05F
CARMI*         PTCLDY    54  49  83 CALM      30.05S
$$

ABBREVIATIONS USED IN REMARKS
   TC - TEMPERATURE IN CELSIUS
  WCI - WIND CHILL INDEX
   HX - HEAT INDEX
  VSB - VISIBILITY
$$




USA.gov is the U.S. government's official web portal to all federal, state and local government web resources and services.